Theta_e
266 267 267 267 267 267 267 267 267 267 267 267 267 267 267 267 267 267 267 267 267 267 267 268 268 268 268 269 269 270 270 271 271 273 275 277 277 277 277 278 278 279 279 280 280 281 282 282 283 283 284 284 285 285 285 286 286 286 287 287 288 288 288 289 289 290 289 289 289 290 289 288 288 288 288 287 286 285 284 284 285 286 287 289 291
266 266 267 267 267 267 267 267 267 267 267 266 266 267 266 266 266 266 266 267 267 267 267 267 268 268 268 268 269 269 270 270 271 273 275 276 276 276 276 276 277 278 279 280 280 281 282 282 282 283 284 284 285 285 285 285 285 286 286 287 287 288 288 288 289 289 289 289 288 288 288 287 287 287 288 289 289 287 284 284 284 284 284 286 287
266 266 266 266 266 266 266 266 266 266 266 266 267 267 266 267 267 266 266 267 267 267 267 268 268 268 268 268 269 269 269 270 272 274 275 275 275 275 275 275 276 277 279 280 281 281 281 282 282 283 284 284 284 284 285 285 285 285 285 286 286 287 287 288 288 289 289 289 287 286 286 286 286 287 288 289 289 289 288 287 287 286 284 284 284
265 266 266 266 266 266 266 266 266 266 266 266 266 266 266 267 267 267 267 267 267 267 267 267 268 268 268 268 269 269 270 271 273 273 273 273 274 275 275 275 275 275 277 279 281 282 282 282 283 283 284 284 285 284 285 285 285 285 285 285 286 286 287 287 288 288 289 289 288 286 286 287 287 287 287 287 287 288 289 289 289 288 287 285 284
265 265 265 265 266 266 266 266 266 266 266 266 266 266 266 266 266 267 267 267 267 267 267 267 268 269 269 269 269 269 270 271 271 271 271 272 273 274 274 274 275 275 275 277 279 281 282 283 283 283 284 284 285 285 285 285 285 285 285 285 286 286 286 286 287 288 288 288 288 286 286 286 286 285 286 286 285 285 286 286 288 288 288 287 285
265 265 265 265 265 265 265 266 266 266 266 266 266 266 266 266 266 267 267 267 267 267 267 267 267 269 269 269 269 269 269 269 269 270 270 271 271 272 273 274 274 274 274 275 277 279 281 283 284 284 284 284 285 285 285 285 285 285 285 286 286 286 286 286 286 287 287 288 288 286 283 283 283 283 284 285 284 283 283 283 284 285 286 286 286
264 264 264 264 265 265 265 265 265 265 266 266 266 266 266 266 266 266 267 267 267 267 267 267 267 268 268 268 268 268 268 268 269 269 270 270 271 271 272 273 273 273 274 274 276 278 279 281 283 284 284 284 284 285 285 284 284 285 285 286 286 286 286 286 286 287 287 288 288 286 283 282 283 282 282 282 283 283 283 282 282 283 284 285 285
264 264 264 264 264 265 265 265 265 265 265 265 266 266 266 266 266 266 266 267 267 267 267 267 267 267 267 267 267 267 268 268 268 269 269 270 270 271 271 272 273 273 273 274 275 277 278 279 281 283 284 284 284 284 285 284 284 285 286 286 286 285 286 286 286 287 287 287 288 287 284 282 281 282 281 281 281 282 283 283 283 283 283 283 283
263 264 264 264 264 264 265 265 265 265 265 265 265 266 266 266 266 266 266 267 267 267 267 267 267 267 267 267 267 267 267 267 268 269 269 269 270 270 271 272 272 273 273 274 275 277 278 279 280 281 282 284 284 284 284 284 284 285 286 286 286 285 285 286 286 286 287 287 288 287 285 283 281 281 281 280 281 282 282 282 283 283 283 282 282
263 263 263 264 264 264 264 264 264 265 265 265 265 265 266 266 266 266 266 267 267 267 267 267 267 267 267 267 267 267 267 268 268 268 269 270 271 271 271 272 273 273 274 274 275 276 277 278 279 280 281 283 284 284 284 285 285 285 286 286 286 285 285 286 286 286 287 287 288 288 286 284 282 282 281 281 282 283 282 281 282 282 282 281 281
263 263 263 263 264 264 264 264 264 264 265 265 265 265 265 266 266 266 266 267 267 267 267 267 267 267 267 267 268 268 268 268 268 269 270 271 272 272 273 273 273 274 275 275 276 276 277 278 279 280 280 281 283 284 284 284 285 285 286 286 286 285 285 285 286 286 287 287 287 288 287 285 283 283 283 282 282 282 282 282 282 282 281 281 281
262 263 263 263 263 263 264 264 264 264 264 264 265 265 265 265 266 266 266 267 267 267 267 267 268 268 268 268 268 268 268 269 269 270 271 272 273 274 274 274 274 275 275 275 276 277 277 278 279 279 280 281 282 283 284 284 285 285 286 286 286 286 285 285 286 286 286 286 287 287 287 286 285 284 284 283 283 282 282 282 282 282 281 282 282
262 262 263 263 263 263 263 263 264 264 264 264 264 265 265 265 265 266 266 266 267 267 267 268 268 268 268 268 269 269 269 270 270 271 272 273 274 275 275 275 275 275 276 276 276 277 277 278 279 279 280 280 281 282 283 284 285 285 285 285 285 285 286 286 286 286 286 286 287 287 287 287 286 285 285 284 283 282 282 282 282 282 282 282 282
262 262 262 263 263 263 263 263 263 263 264 264 264 264 265 265 265 266 266 266 267 267 267 268 268 268 268 269 269 269 270 271 271 272 273 274 275 275 276 276 276 276 276 276 277 277 277 278 279 279 280 280 280 281 282 283 284 284 285 285 285 285 286 286 286 286 286 286 286 287 287 287 286 286 286 285 283 282 282 282 282 282 282 282 283
262 262 262 262 262 262 263 263 263 263 263 264 264 264 265 265 265 266 266 267 267 267 268 268 268 269 269 269 270 270 271 272 272 273 275 276 276 277 277 277 277 277 277 277 277 277 277 278 278 279 279 279 280 281 281 282 283 284 284 284 285 285 285 285 285 285 286 286 286 286 286 287 287 287 286 285 284 283 283 283 283 283 282 282 282
262 262 262 262 262 262 262 263 263 263 263 264 264 264 265 265 265 266 266 267 267 267 268 268 269 269 270 270 270 271 272 273 273 274 276 277 278 278 278 278 277 277 277 277 277 277 277 278 278 278 279 279 280 281 281 281 281 283 283 284 284 284 284 284 285 285 285 286 286 286 286 286 287 287 286 286 285 284 283 283 283 282 282 281 281
261 261 261 262 262 262 262 262 262 263 263 263 264 264 265 265 266 266 266 267 267 268 268 269 269 270 270 271 271 272 273 275 275 275 277 278 279 279 279 279 279 278 278 278 278 278 278 278 278 278 278 279 280 280 280 281 281 282 283 283 283 283 283 284 284 285 285 286 286 286 286 286 286 286 286 286 285 284 283 282 282 282 282 281 280
261 261 261 261 261 262 262 262 262 263 263 263 264 264 265 266 266 266 267 267 268 268 269 269 270 271 271 272 272 272 274 276 276 276 277 278 278 280 280 280 280 279 279 279 279 279 278 278 278 278 278 279 280 280 280 281 281 282 282 282 283 283 283 283 284 284 285 286 286 286 285 285 286 286 286 286 285 285 284 283 282 282 282 281 280
261 261 261 261 261 261 262 262 262 263 263 263 264 265 265 266 267 267 267 268 268 269 269 270 271 272 272 273 273 273 274 276 277 277 277 278 278 279 280 281 281 281 280 280 280 280 279 279 279 279 279 279 280 280 280 281 282 282 282 282 282 283 283 283 283 284 285 286 286 285 285 285 285 286 286 285 285 285 284 284 283 282 282 282 281
260 260 261 261 261 261 261 262 262 263 263 264 265 265 266 266 267 268 268 269 269 269 270 271 271 272 273 274 274 275 275 276 278 278 278 278 279 279 280 280 280 281 281 281 282 281 281 281 280 280 280 280 280 280 281 281 282 282 282 282 282 282 283 283 283 284 284 285 285 285 285 285 285 285 285 285 284 284 284 284 283 283 282 281 280
260 260 260 260 261 261 261 262 262 263 264 264 265 266 267 267 268 268 269 269 270 270 271 271 272 273 274 275 275 276 277 277 278 279 279 279 279 279 280 280 280 280 280 281 282 282 282 282 282 282 282 282 282 282 282 282 283 283 282 282 282 282 283 283 284 284 284 285 285 285 285 285 285 285 285 285 284 284 283 283 283 283 283 282 281
260 260 260 260 261 261 262 262 263 263 264 265 266 266 267 268 268 269 269 270 270 271 272 273 273 274 276 276 277 278 279 279 279 279 279 279 279 280 280 280 280 280 280 280 281 282 282 283 283 283 283 283 283 283 283 283 283 283 283 283 283 283 283 284 284 283 283 284 284 284 284 284 284 284 284 284 284 284 284 283 283 283 283 283 282
260 260 260 260 261 261 262 262 263 264 265 265 266 267 268 268 269 270 270 271 271 272 273 274 274 275 276 277 278 279 280 280 280 280 280 280 280 280 280 280 280 280 280 280 281 281 282 282 282 283 283 284 284 284 284 284 284 284 284 284 284 284 284 284 283 283 283 282 283 283 283 283 284 284 284 284 284 284 284 284 283 283 282 282 282
260 260 260 261 261 261 262 263 263 264 265 266 266 267 268 269 269 270 271 271 272 273 274 275 276 276 277 278 279 280 281 281 281 281 280 280 280 280 280 280 280 280 280 280 281 281 281 281 281 281 282 282 283 284 284 285 285 284 285 285 285 284 284 283 283 283 282 282 282 282 283 283 283 284 284 284 283 284 284 283 282 282 281 281 281
260 260 260 261 261 262 262 263 264 264 265 266 267 267 268 269 270 270 271 272 273 274 275 276 277 277 278 279 280 280 281 281 281 281 281 280 280 280 281 280 280 281 280 280 280 280 280 280 280 281 281 282 282 283 284 284 285 285 285 285 285 285 284 283 283 282 282 282 282 282 282 283 283 283 284 284 283 283 282 281 280 280 280 280 280
260 260 260 261 261 262 262 263 264 265 265 266 267 268 268 269 270 271 272 273 274 275 276 277 278 278 279 280 281 281 281 281 281 281 281 281 280 280 280 280 280 280 280 281 281 280 280 281 281 281 281 281 281 282 283 283 284 284 285 285 285 285 284 283 283 283 282 282 282 282 282 282 282 283 283 283 283 282 281 281 280 279 279 279 279
260 260 260 261 261 262 262 263 264 265 265 266 267 268 269 270 271 272 273 274 275 275 276 277 278 279 279 280 280 281 281 281 281 281 281 281 280 280 280 279 279 279 280 280 281 281 281 281 281 281 281 281 281 281 282 282 283 283 284 284 285 285 285 284 283 283 283 283 282 282 282 281 282 282 283 282 282 282 281 280 279 278 278 278 278
260 260 260 261 261 262 262 263 264 264 265 266 267 268 269 270 271 273 273 274 274 275 276 277 277 278 279 279 279 280 280 280 280 280 280 280 280 280 280 280 279 279 279 280 280 280 280 281 281 281 281 281 281 282 282 282 282 282 283 284 284 285 285 284 284 284 284 283 282 282 281 281 282 282 281 281 280 280 280 279 278 277 277 277 276
260 260 261 261 261 262 263 263 264 264 265 266 267 268 269 270 272 273 273 273 274 275 276 276 277 277 278 278 278 279 279 279 279 280 280 279 279 279 279 279 279 279 279 279 279 280 280 280 280 280 280 281 281 282 282 282 281 281 282 282 283 284 285 285 284 284 284 283 282 282 282 281 281 281 280 279 279 279 278 278 277 276 276 276 275
260 260 261 261 261 262 262 263 264 264 265 266 267 268 269 270 271 272 272 273 274 275 275 276 276 277 277 277 277 277 278 278 278 278 279 279 278 278 278 278 279 279 278 278 278 278 278 278 278 279 279 280 280 281 281 281 281 281 281 282 282 283 284 285 284 284 283 282 282 282 281 280 279 279 279 277 277 277 277 276 276 275 275 275 273
260 260 261 261 261 262 262 263 263 264 265 266 267 268 268 269 270 271 272 272 273 274 274 274 275 275 276 276 276 276 276 277 277 277 277 278 278 277 277 277 277 277 277 277 277 276 275 276 276 276 277 277 277 278 278 279 279 280 280 280 281 282 283 284 284 283 282 281 280 280 280 278 278 278 277 276 275 275 275 275 275 275 275 274 273
260 260 261 261 261 262 262 263 263 264 265 266 267 268 268 269 270 271 271 271 272 272 272 273 273 274 274 275 275 275 275 275 276 276 276 276 276 276 276 275 275 275 277 277 275 273 273 273 273 274 274 275 275 275 276 276 276 277 277 278 279 279 280 281 282 281 280 279 278 278 277 277 276 275 275 275 275 274 273 273 274 274 274 273 272
260 260 260 261 261 261 262 263 263 264 265 266 267 267 268 269 270 270 270 270 270 271 271 271 272 272 273 273 274 274 274 274 275 275 275 275 275 275 274 274 274 274 275 275 272 271 271 272 271 272 272 273 273 274 274 274 274 274 275 275 275 276 277 277 278 278 278 276 275 275 275 275 275 273 272 273 273 273 272 272 273 272 272 272 271
260 260 260 261 261 261 262 263 263 264 265 265 266 267 268 269 270 270 269 269 269 270 270 270 270 271 271 271 272 273 273 273 273 273 273 273 273 274 274 274 273 273 273 272 270 270 270 270 270 271 271 271 272 272 272 273 273 273 273 273 273 273 274 275 275 275 275 275 274 273 273 273 273 271 271 271 271 271 271 272 272 272 271 271 270
260 260 260 260 261 261 262 262 263 264 265 265 266 266 267 268 269 269 269 269 269 269 268 268 268 269 270 270 270 271 271 271 272 272 272 271 272 273 274 273 272 271 270 270 269 269 269 269 269 270 270 270 271 271 271 272 272 272 272 272 272 272 273 273 273 273 273 273 273 272 272 272 271 271 271 271 271 271 271 271 271 271 270 270 270
260 260 260 260 261 261 262 262 263 264 264 265 265 266 267 268 268 268 268 268 268 268 267 267 267 267 268 268 269 269 269 269 269 269 269 269 270 271 271 269 268 268 268 268 268 268 268 268 268 269 269 270 270 270 270 271 271 271 271 271 272 272 272 273 273 273 273 273 272 272 271 271 271 271 271 271 270 271 270 270 270 270 269 269 269
260 260 260 260 261 261 262 262 263 263 264 264 265 266 267 268 267 267 267 267 267 267 267 266 266 266 266 267 267 268 268 268 268 268 269 269 270 269 267 266 267 268 267 267 267 267 267 268 268 269 269 270 270 270 271 271 271 271 272 272 272 273 273 273 273 273 273 272 272 272 271 271 270 271 271 270 269 269 269 269 269 269 269 269 269
259 260 260 260 261 261 262 262 262 263 263 264 264 265 266 267 267 267 266 266 266 266 266 266 265 265 265 265 266 266 266 266 267 267 268 268 267 266 265 265 265 266 266 266 267 267 267 268 269 269 270 270 270 271 271 271 271 272 272 272 272 272 272 273 273 273 273 271 271 271 271 271 271 271 271 270 269 268 269 269 269 269 269 269 268
259 260 260 260 261 261 261 262 262 263 263 263 264 265 266 266 266 266 266 265 265 265 265 265 264 263 264 265 265 264 264 264 264 264 264 264 263 263 263 263 263 264 265 266 266 266 267 268 268 269 270 270 270 270 271 271 271 271 271 271 271 271 271 272 272 272 272 271 270 270 270 270 270 270 270 269 269 268 269 269 269 269 268 268 267
259 259 260 260 261 261 261 262 262 262 263 263 264 265 265 265 265 265 265 265 264 264 263 264 263 263 263 264 264 263 262 262 262 262 262 262 262 262 262 262 262 263 264 265 265 265 266 267 268 269 269 270 270 270 270 270 271 271 271 271 271 271 271 271 271 271 271 271 270 270 270 270 270 270 270 269 269 269 270 270 270 270 270 269 268
258 259 260 260 261 261 261 261 262 262 262 263 263 264 264 264 264 264 264 263 263 263 262 262 262 262 262 262 263 262 261 260 261 260 260 260 260 260 261 261 261 262 264 264 265 265 265 266 267 268 269 269 269 269 269 269 270 270 270 271 271 271 270 270 270 270 270 270 270 270 270 270 270 270 271 270 270 270 271 271 271 271 270 269 269
258 259 259 260 260 261 261 261 261 262 262 262 263 263 264 263 263 263 263 262 262 262 261 261 261 261 261 261 261 260 259 259 259 259 259 259 260 260 260 260 261 262 263 264 265 265 265 265 266 267 268 269 269 268 269 269 269 269 270 271 271 271 270 270 270 270 270 270 270 270 270 270 271 271 272 272 271 271 271 271 270 270 270 269 268
258 258 259 260 260 260 260 261 261 261 261 262 262 262 262 262 262 262 262 262 261 261 260 260 260 259 259 259 259 259 258 258 258 258 258 258 259 259 260 261 262 263 264 264 265 265 265 265 266 266 267 268 268 268 268 269 269 269 269 270 271 271 271 271 271 271 271 271 271 271 271 271 272 272 272 272 271 271 271 270 270 270 269 269 268
257 258 258 259 260 260 260 260 260 260 261 261 261 261 261 261 261 261 261 262 261 260 260 259 259 258 258 258 258 258 258 258 258 258 258 258 259 259 260 261 262 263 264 265 265 266 266 266 266 266 267 267 267 267 267 268 268 269 269 270 271 271 271 271 271 272 272 272 272 272 272 271 271 272 271 271 271 271 270 270 270 269 269 268 268
257 257 258 258 259 259 259 260 260 260 260 260 261 261 261 260 260 260 260 260 260 260 259 259 258 258 257 257 258 258 257 257 258 258 258 259 259 259 260 260 261 263 264 264 265 266 266 266 267 267 267 267 267 267 267 267 268 268 269 269 270 270 270 271 271 271 272 272 272 272 271 271 271 271 271 271 270 270 270 270 269 269 268 268 268
256 256 257 258 258 258 259 259 259 259 259 259 260 260 260 260 260 260 259 259 259 259 259 258 258 257 257 257 257 257 257 257 257 258 258 259 260 260 261 261 261 262 263 264 264 265 265 266 266 266 266 266 267 267 267 267 268 268 269 269 269 269 269 270 270 270 270 271 271 271 271 270 270 270 270 270 270 270 269 269 269 269 269 268 268
255 255 256 257 257 257 258 258 258 258 259 259 259 259 259 259 259 259 259 259 258 258 258 258 257 257 257 257 257 256 257 257 257 258 258 259 260 260 261 261 262 263 263 263 264 264 265 265 265 266 266 266 266 267 267 267 268 269 269 269 269 269 269 269 269 269 269 269 270 270 270 270 270 270 270 269 269 269 269 269 268 268 268 268 267
254 255 255 256 256 256 257 257 257 257 258 258 258 259 259 259 258 258 258 258 258 258 257 257 257 257 256 256 256 256 256 257 258 258 259 259 260 261 262 262 262 263 263 263 264 264 264 264 265 265 265 266 266 266 267 267 268 268 269 269 269 269 268 268 268 268 268 269 269 269 269 269 269 269 269 269 269 269 268 268 268 268 267 267 267
254 254 254 255 255 255 256 256 256 256 257 257 257 258 258 258 258 258 258 258 257 257 257 256 256 256 256 256 256 256 257 257 258 259 259 260 260 261 262 262 262 263 263 263 263 264 264 264 264 264 265 265 265 266 266 267 267 268 268 268 268 268 268 268 268 268 268 268 268 268 268 269 269 268 268 268 268 268 268 267 267 267 266 266 266
253 253 253 254 254 254 255 255 255 255 256 256 256 256 257 257 257 257 257 257 257 257 257 256 256 256 256 255 256 256 256 256 257 258 259 260 260 261 261 262 263 263 263 263 263 263 263 264 264 264 264 264 265 265 265 266 266 266 267 267 267 267 267 268 268 268 268 268 268 268 268 268 268 268 267 267 267 267 267 266 266 266 266 266 265
253 253 253 253 253 254 254 254 254 255 255 255 255 255 256 256 257 257 257 257 256 256 256 256 256 255 255 255 255 256 256 256 257 258 258 259 260 260 261 262 262 262 263 263 263 263 263 263 264 264 264 264 265 265 265 265 265 265 266 266 266 266 267 267 267 267 267 267 267 267 267 267 267 267 267 267 266 266 266 266 266 265 265 265 264
Wind_Speed
28 25 23 23 23 23 23 23 22 22 22 22 22 22 20 19 19 20 20 20 20 20 20 20 21 21 22 24 25 24 24 25 25 24 22 18 16 16 18 18 20 22 24 24 23 23 24 23 23 23 22 22 23 24 25 24 23 22 21 21 22 24 23 20 13 10 12 14 16 18 21 23 22 23 25 28 29 31 33 34 36 38 39 42 43
27 25 24 23 24 24 24 23 23 23 23 23 22 21 21 21 21 21 20 20 20 19 20 20 21 21 23 24 26 27 27 26 25 24 22 18 15 16 19 19 19 20 23 25 25 23 23 24 23 22 22 23 24 24 24 23 21 20 20 19 19 22 23 21 16 12 12 14 16 17 18 22 24 23 24 25 26 28 30 30 31 32 34 36 38
26 25 25 25 25 25 24 24 24 24 24 23 23 22 22 22 21 21 21 21 20 19 19 20 21 23 24 24 24 27 28 26 22 19 18 16 15 17 18 20 21 20 21 24 26 25 24 24 24 23 23 24 25 25 24 23 21 19 19 19 19 19 21 22 20 16 13 14 17 18 19 21 24 24 25 25 24 25 26 27 27 28 30 31 33
26 26 26 26 26 25 25 25 25 24 24 24 23 23 22 22 21 21 21 20 19 19 19 19 21 23 23 22 22 22 22 20 17 16 15 14 14 16 18 20 21 21 21 21 22 26 27 25 24 23 24 25 24 25 24 23 22 20 18 19 19 19 19 21 23 21 16 13 14 19 21 22 24 24 24 24 24 24 25 25 24 25 27 28 29
26 26 26 26 26 25 25 25 25 25 25 24 24 24 23 22 22 21 20 20 20 20 20 20 20 19 17 16 16 16 15 16 16 17 19 18 16 16 18 20 21 21 22 22 20 20 23 26 26 24 25 26 24 24 25 25 24 21 20 19 19 19 18 18 21 23 21 15 13 16 21 22 22 23 24 26 25 24 23 24 25 24 25 25 26
27 27 26 26 26 25 25 25 25 25 25 25 25 25 24 23 23 22 21 20 20 20 20 20 19 17 14 14 16 19 20 22 22 22 23 23 21 19 19 20 21 23 25 25 22 18 17 20 24 26 26 26 25 24 25 25 25 23 22 20 19 19 18 18 19 21 21 19 15 14 17 21 21 21 24 27 27 26 24 23 23 24 24 25 25
28 27 26 26 26 25 26 25 25 26 25 25 25 25 25 24 23 22 21 20 20 20 20 20 19 18 18 19 20 23 26 27 27 27 27 27 26 24 22 22 24 26 26 26 23 19 17 17 19 23 26 26 26 26 25 24 24 24 23 21 20 19 18 17 18 20 20 18 17 15 17 21 22 20 23 26 26 26 26 24 22 24 25 26 26
28 28 27 27 26 26 26 26 26 26 26 26 26 25 25 24 23 22 21 20 20 20 20 21 21 22 22 23 23 25 26 28 29 30 29 29 28 27 25 25 25 27 28 28 24 20 19 18 17 20 24 27 27 28 28 25 23 24 24 21 19 19 19 17 17 20 20 17 16 15 16 18 19 18 20 22 21 22 28 30 29 29 29 27 27
28 28 27 27 27 27 27 27 27 27 27 27 26 26 25 24 23 22 21 21 20 20 20 21 22 24 25 26 26 26 26 27 28 29 29 29 28 28 27 26 25 26 27 28 25 21 21 20 18 18 21 25 27 27 29 28 24 23 22 20 20 20 19 18 17 17 18 16 14 15 14 14 15 16 17 22 26 26 28 29 27 28 29 26 26
28 28 28 27 27 28 28 27 27 27 27 27 26 26 26 25 23 22 21 21 20 20 19 19 20 22 24 26 27 27 27 28 27 26 26 26 26 26 25 24 23 23 23 24 24 22 22 22 20 19 20 22 24 25 27 28 27 26 23 22 23 22 19 18 17 17 17 15 14 15 13 10 15 19 19 24 32 28 24 24 22 21 23 20 18
28 28 28 27 28 28 27 28 28 28 28 27 27 27 26 25 24 22 21 20 19 18 18 18 19 20 22 25 26 27 28 28 26 25 25 25 25 24 23 22 22 21 21 21 22 22 22 22 22 21 20 19 21 23 25 26 27 28 27 26 25 25 23 20 18 17 17 16 16 16 14 12 18 24 22 24 29 26 24 28 25 21 22 17 11
28 28 28 28 28 28 28 28 28 29 28 28 28 28 27 26 25 23 22 20 19 19 19 20 21 21 22 24 25 26 27 26 24 24 24 25 25 24 24 23 22 22 22 21 22 22 22 22 23 23 22 18 18 21 23 25 26 27 28 28 26 26 26 24 22 19 17 17 17 16 16 16 19 24 25 24 26 25 25 27 26 25 26 22 15
28 28 28 28 28 28 28 28 29 29 29 28 28 27 27 27 26 24 23 22 21 20 20 20 21 22 22 24 25 26 25 24 22 23 23 24 24 24 24 23 23 23 22 22 22 22 22 22 23 24 24 21 19 20 21 22 24 26 26 27 27 27 28 28 26 24 21 19 18 17 18 19 20 24 28 28 26 25 24 23 24 27 30 29 26
29 28 28 28 28 28 28 29 29 30 30 29 28 27 27 27 27 26 24 23 23 22 21 21 22 22 23 23 24 25 25 23 20 21 21 21 22 23 23 24 24 25 25 24 23 23 24 23 23 24 25 24 22 21 21 21 22 24 25 25 26 28 29 28 28 27 25 23 21 20 21 21 22 25 29 30 28 27 26 25 26 28 29 28 26
29 28 29 29 29 29 29 29 30 31 31 30 29 28 27 26 27 28 27 26 25 24 23 23 24 24 24 23 23 25 24 21 19 19 20 20 20 21 23 24 25 26 26 26 25 25 26 25 25 26 26 26 25 24 23 22 21 23 24 24 25 26 27 28 29 28 28 26 25 23 22 23 23 24 26 28 29 30 30 29 29 27 25 21 18
29 29 29 30 31 31 30 31 32 33 32 31 31 31 29 28 29 30 30 30 29 26 25 25 25 25 25 23 23 24 24 20 17 17 18 18 18 19 22 25 27 27 27 27 27 27 27 27 28 29 28 28 28 26 25 24 22 22 23 24 24 24 25 27 28 28 28 27 26 24 22 22 22 22 24 25 27 29 26 23 22 21 19 15 12
29 30 31 32 32 32 32 32 33 34 34 33 33 32 31 32 33 32 30 30 30 29 29 28 26 26 26 24 23 24 24 21 17 17 18 17 17 17 20 25 28 29 28 27 26 27 28 29 29 30 30 31 31 30 27 24 22 22 23 23 23 22 24 26 26 26 27 27 26 24 21 21 21 21 22 22 24 27 24 19 19 21 17 11 7
30 31 32 33 33 34 35 34 34 36 37 35 34 34 34 35 34 32 29 29 30 30 29 29 28 27 25 25 23 23 23 21 17 16 17 16 16 16 16 18 23 27 29 27 25 26 29 29 30 32 33 33 33 32 30 26 23 23 24 24 22 21 23 25 25 25 25 24 24 22 19 19 20 20 21 21 23 25 24 22 22 22 18 11 8
32 33 34 35 36 36 37 36 35 37 39 37 36 36 35 34 33 32 30 29 29 29 28 28 29 28 26 25 23 21 22 21 18 15 14 14 14 15 13 13 15 17 22 24 24 25 28 28 29 31 33 34 34 34 31 27 26 27 27 25 22 23 25 25 25 27 25 23 22 21 18 18 20 20 20 21 22 24 24 25 24 23 19 15 13
34 35 36 37 38 38 37 36 36 37 37 36 36 35 34 33 32 31 30 30 29 28 27 26 27 27 26 24 23 21 21 20 17 13 12 12 12 13 13 13 13 13 13 14 16 21 26 29 29 29 30 32 33 33 30 27 27 29 29 26 24 26 29 27 26 27 27 26 24 22 19 18 19 21 21 21 22 23 24 24 25 25 22 19 18
35 37 38 39 39 38 37 36 36 36 35 34 34 34 33 32 31 30 29 29 28 27 27 26 26 28 27 24 23 23 21 19 15 12 10 10 11 12 12 12 13 13 14 12 11 12 17 23 26 28 28 30 31 31 29 28 28 30 30 30 30 31 28 25 26 27 27 26 25 23 21 19 19 21 23 23 24 24 25 25 25 25 24 22 20
36 37 38 39 39 37 36 36 35 34 33 32 32 33 33 31 30 28 27 26 26 26 27 27 27 29 29 27 25 24 20 16 14 11 10 9 9 10 11 12 12 13 14 13 12 11 11 13 17 20 22 24 28 30 30 29 29 30 31 32 34 32 27 25 26 26 23 23 22 21 21 20 19 20 22 24 25 25 25 25 25 24 24 24 22
37 38 38 38 38 37 36 35 35 33 32 32 31 31 31 31 29 27 25 24 24 26 28 28 26 27 28 28 27 24 19 15 13 11 10 9 9 10 10 11 11 12 14 15 14 13 13 11 11 13 14 16 19 23 27 30 31 31 31 31 32 31 27 25 25 23 21 20 19 19 20 21 20 20 22 23 24 26 25 24 25 25 24 25 23
39 39 38 36 36 37 37 35 34 33 32 31 30 29 29 29 27 26 25 24 23 23 26 26 24 23 24 25 24 23 20 18 15 12 10 10 9 10 10 11 11 11 13 15 15 15 15 14 14 14 14 14 15 15 17 21 26 29 29 29 30 28 25 24 24 22 20 20 20 20 21 21 20 21 23 23 24 25 25 24 25 26 25 25 24
39 38 37 36 36 36 37 35 34 33 32 30 29 28 27 26 25 25 24 22 21 20 23 24 23 22 22 21 20 19 18 17 16 15 14 14 12 11 9 8 9 10 12 15 16 17 17 17 16 16 15 16 17 16 15 15 16 19 21 23 27 28 25 24 23 22 21 22 23 21 19 19 19 20 22 23 23 23 24 23 23 23 23 23 22
39 38 37 36 35 35 35 34 33 32 31 29 27 27 26 24 23 22 21 21 22 22 22 23 22 22 22 21 19 17 15 15 15 15 15 14 14 14 13 11 9 8 9 12 15 16 17 18 17 16 16 15 15 17 18 16 14 15 16 18 22 25 26 26 25 24 23 23 23 20 18 19 20 20 20 21 22 22 23 23 23 22 22 22 20
37 37 36 35 34 33 33 34 34 32 31 29 27 26 27 25 23 22 22 23 24 24 22 21 20 21 20 20 20 19 18 18 18 18 17 17 16 14 13 12 12 10 8 7 8 10 12 14 15 15 16 16 16 16 17 17 16 15 15 15 17 20 25 28 28 27 26 24 21 19 19 21 22 22 21 21 22 23 24 25 24 23 23 22 20
35 35 34 32 32 32 32 32 33 33 33 31 28 26 27 26 24 22 21 22 22 21 19 18 20 21 19 18 19 19 18 20 21 21 19 18 18 16 14 13 12 11 10 8 6 6 7 9 11 12 13 14 14 15 15 16 17 17 17 16 14 16 22 27 28 27 26 24 22 22 24 25 25 24 22 21 21 23 25 24 24 24 25 23 20
33 32 32 30 30 31 31 30 30 31 32 32 30 28 26 24 22 22 22 22 21 20 19 19 21 22 20 17 18 18 18 20 22 20 19 17 16 16 16 14 12 10 9 8 7 5 4 5 6 8 10 11 12 13 15 16 18 19 20 19 16 15 19 24 27 26 25 24 24 26 28 27 26 25 23 21 21 23 25 24 23 23 23 21 18
32 30 30 29 29 30 29 29 29 29 29 30 31 31 29 26 23 22 23 23 21 20 20 21 22 23 22 19 18 18 19 21 22 21 19 17 15 16 16 14 12 10 9 7 5 2 1 2 2 1 4 6 7 9 12 15 17 18 18 19 18 17 19 22 24 26 27 27 27 30 31 29 27 27 25 22 22 23 24 23 22 23 21 18 16
31 29 29 29 29 28 28 28 29 29 28 27 28 29 30 29 25 23 23 24 22 21 21 22 23 23 23 22 21 20 21 22 23 22 20 17 15 16 17 16 14 11 9 5 5 8 8 6 6 6 4 3 3 3 5 8 10 12 13 14 15 17 19 21 22 25 27 27 27 29 30 28 27 27 25 22 21 22 22 22 21 21 20 17 16
29 29 28 28 27 27 27 27 28 28 27 27 27 26 26 24 23 24 25 23 20 19 21 24 25 25 24 24 23 22 23 24 24 23 21 19 16 14 16 18 17 12 8 8 11 14 13 11 10 10 9 7 6 5 4 4 4 6 9 11 12 13 15 18 22 25 26 25 24 25 25 24 24 23 22 23 23 21 20 20 20 19 17 16 15
29 28 28 27 27 27 27 27 27 26 26 26 26 25 24 22 22 25 28 26 23 22 23 25 26 25 25 25 24 23 23 24 24 24 23 20 16 14 15 18 19 16 15 16 17 16 15 14 13 12 10 9 8 7 6 6 5 5 6 9 10 11 12 15 19 22 22 21 21 22 23 25 24 21 19 21 23 21 19 19 19 17 16 15 14
29 27 26 26 26 26 26 26 26 25 25 25 24 24 24 22 21 22 25 26 27 27 28 29 27 26 26 27 27 25 25 25 24 24 24 21 17 15 16 19 21 22 23 22 19 16 15 16 14 12 11 10 9 9 8 8 8 8 9 10 11 11 12 13 15 17 18 18 19 20 21 23 23 21 19 19 19 18 18 19 19 17 16 15 16
29 28 26 26 26 26 26 25 24 24 24 23 24 24 23 21 20 20 20 20 20 22 25 27 27 25 24 26 28 26 24 24 25 24 24 23 20 19 22 23 24 25 25 23 19 16 16 15 14 12 11 10 9 9 9 9 9 10 11 12 12 13 14 14 14 15 16 17 18 18 19 19 19 19 21 21 19 18 18 18 18 16 15 16 18
30 29 28 28 27 26 25 24 23 23 22 22 23 24 22 19 20 20 19 18 18 18 20 23 25 23 23 26 29 27 24 23 24 24 25 25 24 25 26 23 20 20 23 23 21 19 17 15 14 13 11 10 10 9 9 10 10 10 11 12 13 14 14 15 15 16 16 17 17 18 18 18 17 18 20 19 17 17 17 17 17 16 15 17 19
29 29 28 28 27 26 25 24 22 22 21 21 24 24 21 19 20 21 20 19 18 18 19 22 24 25 26 29 31 28 24 22 23 24 25 26 28 30 29 24 20 18 19 21 21 21 19 16 15 13 12 11 10 9 9 10 10 10 11 12 12 13 13 14 14 15 16 17 17 18 18 18 17 18 18 16 15 15 17 17 17 17 17 17 18
29 29 28 28 26 25 25 23 23 24 24 23 25 24 20 18 20 21 21 20 19 18 19 20 21 23 25 28 29 28 26 26 27 28 29 29 30 30 29 27 25 22 21 20 21 21 20 18 16 14 13 12 10 9 9 9 9 9 10 11 11 12 12 13 13 14 15 16 16 17 18 18 18 18 18 17 17 17 18 19 19 18 18 18 17
29 29 29 27 25 25 24 22 22 25 26 25 25 24 20 18 20 21 20 20 20 19 19 19 20 21 23 26 27 27 27 27 26 26 28 30 30 29 28 27 27 25 23 22 21 20 19 18 16 14 14 13 11 9 8 7 7 7 7 9 10 10 11 12 13 14 15 16 16 17 17 18 18 18 17 18 18 18 19 20 19 19 20 18 16
29 29 28 27 26 25 23 22 22 24 24 24 24 22 19 18 19 20 19 19 19 19 19 19 19 21 23 25 26 24 22 21 19 19 21 25 28 28 27 27 26 24 23 22 20 18 18 17 15 15 14 13 12 10 8 6 5 5 5 6 8 10 10 11 12 13 14 16 17 17 17 18 19 18 18 19 20 20 21 21 19 19 20 19 18
28 27 27 27 26 25 24 24 23 23 22 22 22 20 19 19 19 18 19 19 18 18 19 18 18 19 22 24 24 22 19 18 18 18 19 22 25 27 26 25 24 23 22 20 18 17 16 15 14 14 14 13 13 11 9 7 6 4 5 6 7 8 10 10 11 12 14 15 17 17 18 18 19 19 18 19 20 20 20 20 18 18 19 19 20
27 26 26 26 25 25 25 24 23 22 21 22 21 19 18 18 18 17 18 19 19 18 19 19 19 19 21 23 23 23 22 21 21 22 23 24 25 25 24 23 23 22 21 19 17 16 15 14 14 14 14 13 13 12 10 9 8 6 4 5 6 7 8 9 10 11 13 15 16 17 18 18 18 17 17 17 18 18 18 18 19 19 19 20 20
26 25 24 24 23 23 23 23 22 22 22 21 20 18 18 18 18 17 17 18 19 19 19 20 21 21 22 23 25 26 27 26 25 25 26 25 24 24 23 22 22 22 20 19 17 15 14 14 14 14 13 13 13 12 11 10 9 8 6 5 5 6 7 8 9 11 12 14 15 16 17 16 15 15 16 17 18 19 19 19 19 19 19 19 19
25 24 23 23 23 22 22 22 22 21 20 19 18 18 19 19 18 18 17 18 18 19 19 20 21 22 24 26 28 29 29 28 26 26 27 26 25 24 23 22 22 21 20 18 17 16 15 15 14 13 12 12 12 11 11 10 10 9 8 6 5 6 7 8 9 10 11 13 15 15 15 14 14 14 16 17 18 18 19 19 18 18 18 18 18
24 24 23 22 22 22 23 23 23 22 21 20 20 19 20 20 19 19 19 18 17 18 19 20 21 23 26 28 29 29 28 28 28 28 28 27 26 25 24 22 22 21 20 18 18 17 16 16 15 14 13 12 12 11 11 11 11 11 10 9 8 7 8 8 9 9 10 11 13 14 14 14 14 15 16 16 16 17 17 17 17 17 17 17 16
23 22 22 21 21 22 22 22 22 22 22 22 20 19 19 20 19 19 19 19 18 18 18 20 23 26 27 28 28 28 28 28 28 27 27 27 26 25 24 23 23 22 20 19 18 17 16 16 15 15 14 13 12 11 12 12 12 12 12 11 11 10 10 10 9 9 9 10 11 13 14 14 14 14 14 14 14 14 14 15 14 14 14 14 13
22 22 21 20 20 21 21 22 21 21 22 21 20 18 18 18 18 18 19 19 19 18 19 21 24 26 28 28 28 27 27 28 28 27 26 26 25 24 24 24 24 23 22 20 19 18 18 17 16 16 15 14 13 12 12 12 12 12 12 12 12 12 12 11 10 10 9 8 9 10 11 12 12 13 12 12 12 12 12 12 12 11 10 10 11
22 21 21 20 19 20 21 21 21 21 21 20 19 18 17 18 18 18 18 19 19 20 22 24 25 26 27 28 28 28 28 28 28 28 26 25 24 24 24 24 24 23 22 22 21 20 19 19 18 17 17 16 15 14 13 13 13 13 12 12 12 12 12 12 11 11 10 10 9 8 8 8 9 10 10 9 9 9 9 9 10 9 9 9 9
20 21 20 19 19 19 19 19 20 20 20 19 19 18 18 18 18 18 18 18 18 19 22 24 25 25 26 28 28 28 28 29 29 28 27 26 25 24 23 23 23 22 22 22 21 21 20 19 19 19 18 18 18 17 16 15 15 14 13 13 12 11 11 11 10 10 10 10 9 8 7 7 8 8 8 8 8 7 8 8 8 8 8 8 8
19 19 19 19 19 18 18 18 19 20 20 19 20 19 18 18 18 18 18 18 19 19 21 23 24 24 25 27 28 28 28 28 28 28 28 27 26 24 23 22 22 21 21 21 20 20 19 19 18 18 18 18 18 18 17 17 16 15 14 13 12 11 11 10 9 9 9 8 8 7 6 6 7 8 7 7 7 7 7 7 7 7 7 8 8
18 18 18 19 19 19 18 18 19 19 19 19 19 19 18 18 18 18 17 18 19 19 20 21 23 23 24 26 27 27 27 28 28 27 27 27 26 25 24 22 21 20 20 19 18 18 18 18 17 17 17 16 17 17 17 16 16 15 14 13 12 11 10 9 8 8 7 7 6 6 5 5 5 6 6 6 7 6 7 7 7 8 8 9 9
Wind_Direction
330 327 325 325 324 322 321 318 317 315 313 312 310 308 306 303 302 304 303 300 299 297 294 291 289 286 283 280 279 278 276 277 277 274 270 264 263 266 273 276 271 263 259 257 253 246 243 246 246 240 237 236 237 238 237 234 232 231 232 234 234 232 232 232 238 247 240 232 234 238 234 227 223 223 223 221 223 225 227 230 231 231 231 231 231
330 329 327 326 325 324 322 320 319 317 315 313 310 308 306 302 301 299 298 297 295 291 288 284 281 279 276 272 270 269 271 275 275 270 262 256 259 269 273 276 278 273 261 252 249 247 245 244 245 242 238 235 235 236 235 231 228 227 226 229 232 233 231 230 233 243 241 229 223 225 225 220 221 222 222 222 223 222 221 223 226 229 232 233 233
331 331 329 327 326 325 323 322 321 319 317 315 312 309 307 304 301 298 296 294 291 288 285 282 280 278 274 269 265 264 268 269 268 264 259 256 260 268 273 276 282 285 274 257 244 241 243 244 243 240 237 234 232 232 232 230 226 223 223 224 226 231 232 231 232 236 240 235 222 217 217 215 218 222 222 223 224 224 225 225 225 227 230 233 234
333 332 329 328 327 325 325 324 322 320 318 316 314 313 310 307 303 299 296 293 290 288 286 284 285 280 271 266 264 264 264 261 259 262 267 267 264 267 273 276 281 286 286 276 254 239 237 240 241 239 236 232 228 227 228 227 224 220 219 222 225 228 230 231 234 235 237 237 226 219 220 219 219 221 220 219 220 224 227 228 229 230 230 231 233
334 332 330 329 328 327 326 324 322 321 320 317 315 313 311 309 306 302 298 294 290 289 287 287 289 283 272 269 273 275 274 272 272 273 274 274 270 268 271 275 280 283 284 287 279 257 243 239 238 238 236 232 226 224 224 224 221 218 217 220 224 228 230 230 234 237 235 233 229 222 220 220 220 221 219 215 213 216 220 224 227 229 232 234 236
334 332 331 330 328 327 325 324 324 322 320 318 316 314 312 310 307 304 299 295 291 288 287 287 288 286 282 283 286 287 286 285 283 279 276 275 273 271 270 272 277 281 283 285 284 278 266 250 240 236 234 231 226 223 223 222 220 217 216 218 223 227 229 230 232 236 234 231 229 219 211 213 214 215 218 214 208 206 207 213 221 225 228 231 234
333 332 330 328 326 326 325 324 324 322 320 318 316 314 313 310 308 306 301 297 293 288 286 284 283 283 282 283 284 284 284 282 278 276 274 273 273 271 268 270 274 278 282 284 280 277 275 268 252 241 235 232 228 225 224 223 221 219 217 218 222 225 227 230 232 235 234 229 225 215 206 210 211 211 214 211 207 207 202 199 207 217 221 224 226
332 331 329 328 326 325 325 323 322 320 318 317 315 314 313 311 309 306 302 298 294 289 285 282 280 280 279 279 279 278 278 276 274 271 269 268 268 267 266 267 271 274 278 280 278 272 269 269 262 251 242 235 231 228 227 226 223 222 221 219 221 223 225 228 231 234 234 227 220 213 202 201 204 205 204 198 196 205 206 202 203 208 212 216 221
331 330 328 327 326 325 324 322 320 319 317 316 315 314 312 311 309 306 302 298 294 289 284 280 279 279 280 278 277 276 274 272 271 268 265 263 263 264 264 263 265 268 272 275 274 268 265 264 261 258 250 241 236 233 231 230 226 223 221 218 218 221 223 226 229 233 234 228 218 210 198 189 191 188 185 189 196 205 207 204 205 206 206 209 216
329 328 326 325 325 324 323 322 319 319 318 316 316 314 313 311 308 305 302 298 293 289 284 279 278 278 279 279 278 276 273 271 269 264 260 258 259 261 262 260 260 260 262 266 269 267 264 262 260 260 256 245 239 237 236 234 232 229 227 224 223 220 218 221 226 228 232 232 223 211 200 187 191 191 188 198 207 208 202 199 202 201 196 198 211
328 327 325 324 324 323 322 321 320 319 318 317 316 315 313 311 308 305 302 298 294 291 286 280 277 277 279 280 278 275 274 273 270 262 257 254 253 254 255 255 256 255 254 257 261 263 264 262 259 260 260 249 239 238 239 238 236 233 233 234 233 228 220 216 219 222 226 233 231 221 207 194 198 201 202 206 209 208 204 204 200 189 182 184 199
327 326 324 324 324 324 323 322 320 319 319 318 317 315 313 311 310 307 303 301 298 294 289 283 281 281 282 283 282 280 279 277 269 261 258 254 250 249 250 250 250 251 251 251 253 257 261 262 260 260 260 253 243 240 238 238 238 236 235 237 238 237 231 225 223 221 220 226 233 229 215 205 203 204 206 208 208 206 207 206 200 190 189 193 197
326 324 324 324 324 324 324 322 321 319 318 317 316 315 313 312 310 308 305 304 302 296 291 287 286 287 286 286 288 288 287 284 272 262 260 256 251 249 247 248 248 247 247 247 247 250 254 257 258 259 258 254 249 245 240 238 239 237 237 239 240 240 239 236 233 231 227 225 227 229 221 212 208 208 209 210 206 202 201 200 198 197 198 200 204
326 324 325 325 324 325 324 322 320 318 318 317 316 315 314 312 311 311 308 306 305 302 299 296 295 296 294 292 293 292 293 293 282 267 262 258 253 250 247 247 247 247 245 243 242 243 245 248 251 254 256 254 251 248 243 240 240 239 238 239 239 240 241 240 239 238 235 230 227 229 229 222 218 219 217 212 206 202 199 198 199 200 202 205 210
326 326 326 325 325 325 324 322 321 320 319 318 317 317 315 313 315 318 318 315 312 309 307 306 306 306 305 302 299 297 299 299 287 273 267 262 256 251 247 246 245 245 245 243 241 240 240 240 244 248 251 253 251 248 246 244 244 243 241 239 239 240 241 240 239 236 234 231 230 232 235 232 230 230 225 217 212 210 208 207 205 202 200 199 201
327 327 326 326 325 325 325 323 321 321 321 320 320 320 318 317 321 324 324 323 321 317 315 314 314 314 313 311 305 303 307 309 298 284 278 271 264 254 247 244 243 243 244 242 241 242 239 236 238 242 246 250 250 249 248 248 246 244 243 242 241 242 243 242 239 236 233 233 234 235 238 238 237 236 233 226 219 214 210 207 202 195 187 180 179
328 328 326 325 325 324 325 323 321 321 322 321 321 323 323 323 325 327 325 323 323 323 322 321 320 319 319 318 313 309 313 319 311 296 289 285 282 272 256 246 240 239 241 241 240 241 240 236 235 237 242 246 248 248 248 246 243 241 242 244 243 242 246 246 241 237 235 234 234 235 238 240 239 236 234 231 223 214 203 193 191 187 180 173 172
328 327 326 325 323 323 325 324 322 323 324 323 323 324 325 326 327 328 326 323 323 324 324 323 323 322 320 319 316 310 312 320 318 302 293 290 289 289 277 259 248 241 238 237 236 238 239 238 235 236 240 244 246 248 247 240 236 236 238 241 240 239 243 244 240 236 231 228 229 231 236 239 238 235 231 227 224 217 207 200 194 186 180 179 175
328 326 324 324 323 324 326 325 324 325 325 326 326 325 326 326 328 329 327 325 324 323 323 323 322 323 322 321 319 312 310 320 323 311 301 291 284 285 286 281 275 260 243 235 232 233 235 238 236 234 237 242 244 245 243 235 231 232 233 233 232 235 239 238 234 229 223 218 220 224 229 234 234 231 228 225 223 220 216 212 201 190 186 184 171
327 325 324 324 325 326 327 327 327 327 326 326 327 327 327 328 329 329 329 328 326 325 324 322 319 320 321 320 319 317 315 320 326 321 309 295 284 281 279 278 286 288 272 252 239 232 231 235 237 235 235 240 243 243 238 230 226 228 228 223 223 232 237 234 228 225 219 213 213 216 220 226 226 224 222 220 218 217 217 215 209 202 194 183 175
326 325 325 326 326 327 328 328 328 329 328 328 328 329 331 331 331 330 329 329 328 326 325 325 321 322 324 322 322 325 326 326 328 327 319 300 285 280 277 274 277 283 285 281 268 248 232 229 234 238 238 240 242 242 238 230 225 226 225 222 225 231 233 228 223 222 217 211 208 209 212 216 216 215 213 212 213 214 214 214 214 211 202 192 188
326 326 326 327 328 328 330 331 331 331 331 332 330 329 333 335 333 332 330 328 327 327 328 330 328 327 329 330 332 336 339 337 331 326 320 307 290 280 276 275 275 275 276 275 270 264 251 233 231 236 240 242 240 238 236 231 226 224 224 226 229 230 228 223 218 215 211 207 203 202 206 209 211 210 207 206 208 212 215 216 217 217 213 211 209
328 327 328 328 329 330 331 333 334 334 334 334 332 330 334 337 336 335 334 330 329 331 332 333 331 329 330 333 336 339 344 346 340 329 317 306 294 284 278 277 276 269 266 265 262 260 260 255 245 239 240 242 241 239 237 234 230 226 223 224 228 226 220 215 211 205 202 201 199 200 204 207 209 209 205 203 205 208 213 216 218 218 215 215 217
331 330 330 329 330 332 333 334 336 336 337 336 334 332 335 337 337 337 337 335 332 330 331 332 331 329 329 330 333 337 345 355 2 1 351 337 318 299 286 280 278 271 263 261 259 258 258 259 258 254 249 247 248 248 247 241 234 229 224 222 222 218 209 204 202 197 195 197 197 200 203 204 207 208 205 203 204 207 209 210 212 212 211 211 213
332 331 331 331 332 334 334 336 337 339 339 338 336 334 334 336 335 334 334 335 331 328 330 332 332 331 331 330 328 332 346 7 20 22 17 13 7 353 333 307 287 276 266 260 255 254 254 255 257 257 254 251 249 249 253 251 241 235 231 224 216 209 202 198 196 192 192 195 197 199 201 200 202 204 204 202 201 202 202 201 202 205 205 206 207
332 332 332 332 334 335 335 336 337 339 340 340 338 336 336 335 333 332 334 336 336 334 334 335 336 336 338 341 343 347 2 16 21 20 18 17 15 10 3 354 337 311 285 268 259 255 252 250 250 251 249 249 247 243 244 247 247 242 240 233 220 207 197 195 195 191 191 195 196 198 198 196 197 200 201 199 198 198 199 197 195 196 198 198 195
332 332 333 333 335 336 336 336 336 337 339 340 340 340 342 340 336 335 339 340 338 336 336 337 339 339 341 349 357 4 13 15 12 15 15 9 6 5 3 359 355 351 340 314 285 269 259 251 247 246 245 244 243 239 237 240 244 243 239 237 229 212 200 197 197 196 196 196 196 196 195 193 193 194 193 193 194 196 199 197 192 188 190 191 185
333 332 333 334 335 337 337 336 337 337 338 339 340 340 342 342 338 337 341 339 335 335 337 341 344 342 344 355 2 4 10 9 5 6 7 3 360 0 360 358 355 351 348 339 319 294 277 262 251 248 248 243 237 234 232 233 237 239 236 235 233 220 206 200 198 199 199 196 193 192 190 186 186 188 187 188 191 193 194 193 190 186 186 185 177
334 333 334 335 335 337 337 337 337 337 337 339 340 341 344 344 338 338 343 342 341 344 348 351 352 351 352 2 6 6 7 4 360 1 4 3 1 360 358 355 350 346 343 334 318 295 275 268 257 250 251 249 238 229 225 226 230 234 234 233 231 224 211 201 197 197 197 192 189 190 187 183 184 186 186 187 190 192 191 190 188 184 182 181 177
335 335 335 336 336 337 336 337 338 338 337 338 339 341 346 348 344 343 345 345 347 354 358 360 2 3 3 7 10 10 8 4 3 5 6 4 4 5 4 359 352 349 345 334 330 2 66 65 46 309 245 237 227 218 215 219 226 231 232 229 227 225 217 207 200 198 195 191 190 190 188 184 183 184 183 182 186 187 187 189 189 183 178 174 170
335 335 335 336 336 336 336 337 338 338 338 338 338 338 341 344 345 347 349 350 352 358 3 5 9 12 11 9 8 9 10 9 9 11 11 10 11 12 13 12 11 6 357 355 41 55 53 50 47 44 54 95 119 154 187 205 217 220 219 215 214 215 214 210 204 198 192 189 189 189 187 184 181 180 179 178 178 180 182 186 186 182 179 176 170
336 335 335 335 336 336 337 337 338 338 338 340 341 338 334 334 340 346 350 353 357 -0 5 9 11 14 15 12 11 11 11 11 12 14 16 17 18 20 23 25 27 27 32 52 61 56 51 50 49 48 54 65 70 86 119 143 165 182 186 184 184 191 197 200 200 196 189 183 182 182 182 179 177 176 176 175 174 174 175 179 180 177 175 174 170
339 337 336 336 337 338 339 339 339 339 339 338 339 337 334 334 341 344 346 351 357 6 12 13 12 12 13 13 14 14 14 14 16 18 20 23 28 34 39 41 41 45 54 58 55 49 49 50 49 50 57 64 69 80 93 102 111 125 138 145 150 160 171 179 185 186 182 177 173 171 173 175 174 168 164 168 171 168 166 170 173 171 167 164 161
343 340 339 338 338 338 340 340 339 339 340 339 338 335 334 338 345 347 346 349 354 1 8 11 11 11 10 10 13 15 16 17 19 21 24 29 36 45 52 54 50 48 50 53 49 42 41 43 42 44 50 58 69 78 83 91 100 107 115 121 126 133 143 153 161 164 165 165 164 164 168 171 167 158 154 157 160 158 159 164 168 166 165 163 159
346 345 344 343 343 341 340 341 341 340 340 340 338 335 336 342 350 351 350 351 352 353 356 -0 6 9 8 8 12 14 15 17 22 27 30 33 39 47 50 46 41 37 39 43 44 41 40 40 39 41 44 51 63 74 83 93 100 105 113 118 120 125 131 137 142 146 150 154 157 160 164 163 159 158 159 160 158 158 160 164 167 165 163 163 163
347 347 347 348 347 345 343 343 344 343 340 339 340 340 341 349 355 353 352 354 355 355 353 354 358 5 7 9 11 14 15 18 24 32 37 39 45 51 47 37 28 27 31 35 38 41 42 42 44 46 48 51 60 71 84 94 101 107 114 119 121 123 127 132 139 144 148 151 152 154 156 156 155 158 158 156 156 159 159 161 166 164 160 162 164
348 348 348 349 349 348 348 347 347 346 344 345 348 348 349 355 359 357 357 359 358 358 358 358 360 3 6 6 7 10 17 24 31 38 42 44 48 51 47 38 31 28 26 26 30 35 38 41 45 48 50 53 59 69 81 90 100 109 115 119 121 124 128 134 141 145 147 149 151 155 157 156 157 160 157 148 147 153 157 159 163 164 164 165 163
349 350 351 351 350 352 352 351 351 353 354 355 356 356 355 358 1 1 2 3 2 360 2 4 6 6 4 0 359 4 16 27 31 34 38 41 43 42 40 37 36 33 28 25 27 31 35 38 41 43 47 51 54 61 71 83 96 106 113 118 121 125 133 139 143 147 149 147 148 155 158 158 160 163 162 155 151 155 159 160 159 159 161 162 161
349 352 354 354 354 356 357 354 354 358 0 360 359 0 0 1 3 3 2 3 4 3 3 7 10 8 4 360 359 5 15 21 21 22 27 33 36 35 32 31 32 31 31 31 30 29 31 36 40 42 45 47 49 54 64 78 92 105 117 125 127 130 138 143 145 148 152 151 151 154 156 156 158 161 162 159 157 157 160 162 161 160 160 160 162
349 351 354 357 358 359 1 1 2 3 3 1 359 2 5 5 5 5 4 3 4 3 3 7 9 7 5 4 6 9 14 13 10 10 16 24 30 32 30 28 28 28 29 31 31 30 30 34 41 46 46 44 44 47 52 61 76 93 110 123 130 134 139 145 149 152 154 155 156 157 157 158 160 162 162 163 163 163 164 166 166 165 165 165 164
350 351 354 357 360 1 4 7 7 6 5 3 2 4 9 9 8 9 8 6 5 3 4 6 6 5 7 8 10 16 21 16 11 14 19 23 28 31 30 28 28 30 30 30 31 33 33 35 41 47 48 45 43 42 43 45 51 69 94 112 126 135 140 146 152 154 155 156 158 158 159 160 162 164 165 165 166 167 167 166 165 166 166 165 164
352 352 354 357 0 3 5 6 7 8 10 10 10 10 9 8 9 12 13 10 8 6 6 6 3 3 6 9 12 22 30 26 21 24 30 31 30 30 29 29 31 34 35 33 33 36 38 39 42 44 45 46 45 43 45 47 45 49 76 105 119 128 136 144 150 152 154 156 157 158 158 159 162 165 166 166 166 165 164 163 164 165 164 164 165
354 355 356 358 1 4 5 6 8 11 13 13 13 12 11 9 10 14 15 13 12 10 9 7 4 3 7 12 17 26 31 29 25 27 30 30 29 29 29 31 35 39 40 38 39 41 42 44 46 44 43 45 46 44 48 52 51 49 56 79 103 115 125 135 144 149 153 154 155 157 158 158 160 162 162 162 163 163 162 162 164 164 164 164 165
357 358 359 -0 2 5 6 9 11 11 11 14 17 17 17 15 13 14 15 14 13 13 12 8 5 5 10 16 22 25 26 25 26 27 28 28 29 29 29 31 36 39 41 41 42 43 44 46 49 48 46 47 49 51 56 60 62 63 64 66 80 100 113 123 132 141 147 150 151 153 153 152 153 155 156 158 160 161 161 162 163 163 164 166 167
0 1 0 0 3 6 6 9 11 11 12 16 19 20 21 19 16 15 15 12 11 14 14 11 8 9 13 19 22 23 23 24 25 27 29 30 31 31 32 33 35 38 41 42 42 42 43 45 46 46 46 47 51 58 65 69 71 74 77 78 82 91 102 112 122 132 141 145 145 145 145 145 147 150 153 156 159 160 161 162 163 164 166 169 172
2 3 2 2 3 5 5 7 10 11 13 15 16 17 19 19 17 17 16 13 11 13 14 13 13 15 17 19 20 21 23 24 25 26 29 31 32 33 35 37 38 40 42 43 43 44 45 45 45 45 46 48 51 59 68 74 76 78 81 84 87 92 97 103 110 120 130 137 140 140 140 140 142 146 149 153 156 160 161 163 167 171 172 175 179
3 4 5 5 4 5 6 6 7 8 11 12 12 12 14 15 15 16 15 13 13 14 14 15 16 17 18 19 20 20 22 24 25 26 29 31 32 35 38 40 42 44 45 46 47 47 48 48 49 50 50 52 56 61 69 75 79 81 84 87 90 92 96 100 104 109 116 125 132 136 139 140 140 144 148 150 153 160 164 165 170 176 177 179 185
4 5 6 7 7 7 8 7 6 7 7 7 8 8 9 10 12 14 14 13 13 14 16 17 16 16 17 19 20 21 22 24 25 27 29 31 33 37 40 42 43 45 47 48 49 49 50 51 53 55 57 59 62 65 70 76 81 85 88 92 94 96 99 102 105 109 113 118 121 125 131 136 138 142 147 150 152 160 165 167 173 179 180 183 190
5 5 5 6 8 9 8 7 6 6 6 5 5 6 7 7 9 11 12 13 13 14 15 16 16 15 15 17 19 21 23 24 25 26 27 29 32 36 40 44 45 46 47 47 48 50 51 52 54 57 60 63 65 68 71 75 80 84 88 91 94 96 98 101 105 108 111 114 118 121 126 133 137 141 147 152 157 162 165 168 176 183 184 188 194
5 5 5 5 6 9 10 9 8 8 7 6 5 4 3 4 5 7 8 10 12 12 13 14 15 14 14 15 17 19 20 21 23 24 26 27 29 32 36 42 46 47 47 47 47 48 50 51 53 55 58 61 63 66 68 70 73 77 80 83 87 90 92 95 99 104 107 111 115 119 126 136 142 146 151 154 158 163 167 170 178 188 192 198 204
6 5 5 4 5 8 11 11 8 8 7 5 3 2 0 359 1 3 4 5 8 9 9 11 12 13 14 15 16 17 18 19 20 23 25 27 28 29 31 34 38 43 46 48 48 47 47 47 48 49 52 55 58 61 63 64 65 67 70 73 77 80 82 85 88 91 95 99 103 108 118 130 139 146 154 159 163 169 176 178 183 189 193 196 201